Weather History for KFOK - December, 2013

Change the Weather History Date:

Friday, December 6, 2013

  Actual Average Record
Temperature  
Mean Temperature 48 °F -  
Max Temperature 57 °F 45 °F 62 °F (2001)
Min Temperature 39 °F 27 °F 3 °F (2002)
Degree Days  
Heating Degree Days 17    
Moisture  
Dew Point 44 °F    
Average Humidity 90    
Maximum Humidity 100    
Minimum Humidity 82    
Precipitation  
Precipitation 0.34 in - - ()
Sea Level Pressure  
Sea Level Pressure 30.03 in    
Wind  
Wind Speed 9 mph (NNW)    
Max Wind Speed 15 mph    
Max Gust Speed 21 mph    
Visibility 5 miles    
Events Rain    
Averages and records for this station are not official NWS values.
T = Trace of Precipitation, MM = Missing Value Source: NWS Daily Summary

Daily Weather History Graph

Daily Weather History Graph

Search for Another Location

Airport or City:

Trip Planner

Search our weather history database for the weather conditions in past years. The results will help you decide how hot, cold, wet, or windy it might be!

Date:

Astronomy

Dec. 06, 2013 Rise Set
Actual Time 7:00 AM EST 4:22 PM EST
Civil Twilight 6:29 AM EST 4:53 PM EST
Nautical Twilight 5:55 AM EST 5:27 PM EST
Astronomical Twilight 5:22 AM EST 6:00 PM EST
Moon 10:03 AM EST (12/6) 8:52 PM EST (12/6)
Length of Visible Light 10h 23m
Length of Day
9h 21m
Waxing Crescent, 19% of the Moon is Illuminated
Dec 6
Waxing Crescent
Dec 9
First Quarter
Dec 17
Full
Dec 25
Last Quarter
Jan 1
New

Hourly Weather History & Observations

Time (EST) Temp. Windchill Dew Point Humidity Pressure Visibility Wind Dir Wind Speed Gust Speed Precip Events Conditions
12:50 AM 53.6 °F - 53.6 °F 100% 29.95 in 1.0 mi SSW 8.1 mph - N/A   Mist
12:53 AM 54.0 °F - 53.1 °F 97% 29.95 in 1.0 mi SSW 6.9 mph - N/A   Mist
1:53 AM 55.0 °F - 53.1 °F 93% 29.96 in 1.8 mi SW 6.9 mph - 0.00 in   Overcast
2:19 AM 55.4 °F - 53.6 °F 94% 29.95 in 2.0 mi SW 9.2 mph - N/A   Overcast
2:53 AM 55.0 °F - 54.0 °F 96% 29.93 in 3.0 mi SSW 8.1 mph 19.6 mph 0.00 in   Overcast
3:53 AM 55.9 °F - 54.0 °F 93% 29.92 in 3.0 mi SW 8.1 mph 18.4 mph N/A   Overcast
4:53 AM 57.0 °F - 55.0 °F 93% 29.93 in 4.0 mi WSW 12.7 mph 18.4 mph 0.01 in Rain Light Rain
5:53 AM 55.9 °F - 54.0 °F 93% 29.92 in 4.0 mi SW 6.9 mph - 0.00 in Rain Light Rain
6:53 AM 55.0 °F - 54.0 °F 96% 29.95 in 4.0 mi SW 9.2 mph - 0.00 in   Overcast
7:53 AM 55.0 °F - 54.0 °F 96% 29.94 in 3.0 mi SW 9.2 mph - 0.00 in   Overcast
8:20 AM 55.4 °F - 53.6 °F 94% 29.95 in 2.5 mi WSW 12.7 mph - 0.00 in Rain Light Rain
8:40 AM 55.4 °F - 53.6 °F 94% 29.97 in 3.0 mi West 11.5 mph - 0.01 in Rain Light Rain
8:53 AM 55.9 °F - 55.0 °F 97% 29.96 in 3.0 mi West 5.8 mph - 0.01 in Rain Light Rain
9:07 AM 53.6 °F - 50.0 °F 88% 29.98 in 2.5 mi North 11.5 mph - 0.00 in Rain Light Rain
9:14 AM 51.8 °F - 50.0 °F 94% 29.99 in 3.0 mi North 11.5 mph - 0.01 in Rain Light Rain
9:36 AM 50.0 °F - 48.2 °F 94% 30.00 in 2.5 mi North 10.4 mph 20.7 mph 0.02 in Rain Light Rain
9:53 AM 50.0 °F - 48.0 °F 93% 30.01 in 2.5 mi NNW 9.2 mph - 0.03 in Rain Light Rain
9:58 AM 50.0 °F - 48.2 °F 94% 30.01 in 8.0 mi North 9.2 mph - 0.00 in Rain Light Rain
10:53 AM 48.9 °F - 45.0 °F 86% 30.00 in 10.0 mi North 10.4 mph - 0.02 in Rain Light Rain
11:26 AM 48.2 °F - 44.6 °F 87% 30.00 in 10.0 mi NNW 12.7 mph - 0.00 in   Overcast
11:53 AM 48.0 °F - 43.0 °F 83% 30.00 in 10.0 mi North 9.2 mph - 0.00 in Rain Light Rain
12:53 PM 46.0 °F 41.0 °F 41.0 °F 83% 30.01 in 10.0 mi North 10.4 mph - 0.01 in   Overcast
1:53 PM 45.0 °F 38.5 °F 41.0 °F 86% 30.03 in 9.0 mi NNW 13.8 mph 18.4 mph 0.00 in Rain Light Rain
2:15 PM 44.6 °F 39.2 °F 41.0 °F 87% 30.03 in 7.0 mi NNW 10.4 mph - 0.00 in   Overcast
2:22 PM 44.6 °F 39.7 °F 41.0 °F 87% 30.02 in 9.0 mi NNW 9.2 mph - 0.00 in   Overcast
2:53 PM 45.0 °F 39.7 °F 41.0 °F 86% 30.03 in 10.0 mi NNW 10.4 mph - 0.00 in Rain Light Rain
3:53 PM 44.1 °F 40.1 °F 39.9 °F 85% 30.04 in 9.0 mi North 6.9 mph - 0.04 in Rain Light Rain
4:53 PM 44.1 °F 40.1 °F 39.9 °F 85% 30.04 in 10.0 mi North 6.9 mph - 0.00 in   Overcast
5:53 PM 44.1 °F 39.0 °F 39.0 °F 82% 30.07 in 10.0 mi NNW 9.2 mph - 0.00 in Rain Light Rain
6:53 PM 43.0 °F 38.2 °F 37.9 °F 82% 30.08 in 10.0 mi North 8.1 mph - 0.01 in Rain Light Rain
7:53 PM 41.0 °F 37.1 °F 37.9 °F 89% 30.10 in 5.0 mi North 5.8 mph - 0.05 in Rain Light Rain
8:53 PM 39.9 °F 33.4 °F 36.0 °F 86% 30.12 in 4.0 mi North 10.4 mph - 0.04 in Rain Light Rain
9:05 PM 39.2 °F 34.2 °F 35.6 °F 87% 30.12 in 4.0 mi North 6.9 mph - 0.01 in Rain Light Rain
9:11 PM 39.2 °F 35.9 °F 37.4 °F 93% 30.12 in 3.0 mi North 4.6 mph - 0.01 in Rain Light Rain
9:31 PM 39.2 °F 31.2 °F 37.4 °F 93% 30.12 in 2.5 mi North 13.8 mph 20.7 mph 0.03 in Rain Rain
9:39 PM 39.2 °F 32.0 °F 37.4 °F 93% 30.12 in 4.0 mi North 11.5 mph 20.7 mph 0.04 in Rain Light Rain
9:53 PM 39.0 °F 31.8 °F 36.0 °F 89% 30.10 in 4.0 mi North 11.5 mph 20.7 mph 0.05 in Rain Light Rain
10:10 PM 39.2 °F 30.8 °F 35.6 °F 87% 30.08 in 4.0 mi NNE 15.0 mph - 0.01 in Rain Light Rain
10:31 PM 39.2 °F 33.0 °F 35.6 °F 87% 30.10 in 6.0 mi North 9.2 mph - 0.01 in Rain Light Rain
10:44 PM 39.2 °F 33.0 °F 35.6 °F 87% 30.10 in 3.0 mi North 9.2 mph - 0.03 in Rain Rain
10:53 PM 39.0 °F 33.4 °F 36.0 °F 89% 30.10 in 4.0 mi North 8.1 mph - 0.03 in Rain Light Rain
11:17 PM 39.2 °F 32.5 °F 37.4 °F 93% 30.10 in 5.0 mi North 10.4 mph - 0.02 in Rain Light Rain
11:49 PM 39.2 °F 32.0 °F 35.6 °F 87% 30.11 in 4.0 mi North 11.5 mph 19.6 mph 0.04 in Rain Light Rain
11:53 PM 39.0 °F 32.3 °F 36.0 °F 89% 30.11 in 4.0 mi North 10.4 mph 19.6 mph 0.04 in Rain Light Rain